Change the Weather History Date:

Saturday, November 19, 2011

  Actual Average Record
Temperature  
Mean Temperature 37 °F -  
Max Temperature 46 °F 42 °F 51 °F (2006)
Min Temperature 28 °F 32 °F 24 °F (2007)
Degree Days  
Heating Degree Days 28    
Moisture  
Dew Point 35 °F    
Average Humidity 86    
Maximum Humidity 100    
Minimum Humidity 58    
Precipitation  
Precipitation 0.00 in 0.11 in - ()
Sea Level Pressure  
Sea Level Pressure 30.17 in    
Wind  
Wind Speed 2 mph ()    
Max Wind Speed 5 mph    
Max Gust Speed -    
Visibility 3.6 miles    
Events Fog    
Averages and records for this station are not official NWS values.
T = Trace of Precipitation, MM = Missing Value Source: Averaged Metar Reports

Daily Weather History Graph

Daily Weather History Graph

Search for Another Location

Airport or City:

Trip Planner

Search our weather history database for the weather conditions in past years. The results will help you decide how hot, cold, wet, or windy it might be!

Date:

Astronomy

Nov. 19, 2011 Rise Set
Actual Time 7:41 AM CET 4:59 PM CET
Civil Twilight 7:08 AM CET 5:32 PM CET
Nautical Twilight 6:31 AM CET 6:09 PM CET
Astronomical Twilight 5:56 AM CET 6:44 PM CET
Moon 12:22 AM CET (11/19) 1:28 PM CET (11/19)
Length of Visible Light 10h 23m
Length of Day
9h 18m
Last Quarter, 41% of the Moon is Illuminated
Nov 19
Last Quarter
Nov 25
New
Dec 2
First Quarter
Dec 10
Full
Dec 18
Last Quarter

Hourly Weather History & Observations

Time (CET) Temp. Windchill Dew Point Humidity Pressure Visibility Wind Dir Wind Speed Gust Speed Precip Events Conditions
12:00 AM 32 °F - 30 °F 88% 30.27 in - WNW 1.2 mph - -  
12:20 AM 32.0 °F - 30.2 °F 93% 30.18 in 5.0 mi WSW 1.2 mph - N/A   Unknown
12:50 AM 30.2 °F - 30.2 °F 100% 30.18 in 5.0 mi West 1.2 mph - N/A   Unknown
1:00 AM 31 °F - 28 °F 85% 30.27 in 5 mi SW 1.2 mph - -   Mist
1:20 AM 30.2 °F - 28.4 °F 93% 30.18 in 5.0 mi Calm Calm - N/A   Unknown
1:50 AM 30.2 °F - 28.4 °F 93% 30.18 in 4.3 mi NW 2.3 mph - N/A   Unknown
2:00 AM 28 °F - 27 °F 94% 30.28 in - North 1.2 mph - -  
2:50 AM 30.2 °F - 28.4 °F 93% 30.18 in 3.7 mi Calm Calm - N/A   Partly Cloudy
3:00 AM 29 °F - 28 °F 94% 30.27 in - Calm Calm - -  
3:20 AM 30.2 °F - 28.4 °F 93% 30.18 in 3.7 mi Variable 1.2 mph - N/A Fog Fog
3:50 AM 30.2 °F - 28.4 °F 93% 30.18 in 3.1 mi Variable 1.2 mph - N/A Fog Scattered Clouds
4:17 AM 32.0 °F 28.7 °F 30.2 °F 93% 30.18 in 0.7 mi SW 3.5 mph - N/A   Mostly Cloudy
4:50 AM 33.8 °F 29.6 °F 32.0 °F 93% 30.18 in 0.2 mi SW 4.6 mph - N/A Fog Fog
5:00 AM 34 °F - 33 °F 97% 30.25 in - WSW 2.3 mph - -  
5:20 AM 33.8 °F 30.8 °F 33.8 °F 100% 30.18 in 0.2 mi SW 3.5 mph - N/A Fog Fog
5:50 AM 35.6 °F 32.8 °F 35.6 °F 100% 30.18 in 0.2 mi SW 3.5 mph - N/A Fog Fog
6:00 AM 36 °F - 35 °F 97% 30.24 in - SW 4.6 mph - -  
6:20 AM 35.6 °F 32.8 °F 35.6 °F 100% 30.18 in 0.9 mi Variable 3.5 mph - N/A   Scattered Clouds
6:26 AM 35.6 °F 32.8 °F 35.6 °F 100% 30.18 in 1.2 mi Variable 3.5 mph - N/A Fog Mostly Cloudy
6:50 AM 37.4 °F 34.9 °F 35.6 °F 93% 30.18 in 2.2 mi Variable 3.5 mph - N/A Fog Mostly Cloudy
7:00 AM 37 °F - 36 °F 92% 30.24 in 2 mi West 3.5 mph - - Fog Light Fog
7:20 AM 37.4 °F - 35.6 °F 93% 30.18 in - Variable 2.3 mph - N/A   Mostly Cloudy
7:50 AM 37.4 °F - 35.6 °F 93% 30.18 in 1.1 mi Variable 1.2 mph - N/A   Mostly Cloudy
8:00 AM 37 °F - 36 °F 94% 30.23 in - West 1.2 mph - -  
8:20 AM 37.4 °F 34.9 °F 37.4 °F 100% 30.18 in 1.1 mi WSW 3.5 mph - N/A   Mostly Cloudy
8:50 AM 37.4 °F - 37.4 °F 100% 30.18 in 1.4 mi Variable 2.3 mph - N/A   Overcast
9:00 AM 38 °F - 36 °F 91% 30.24 in - WNW 1.2 mph - -  
9:20 AM 39.2 °F - 37.4 °F 93% 30.18 in 1.7 mi Variable 1.2 mph - N/A   Mostly Cloudy
9:50 AM 39.2 °F - 37.4 °F 93% 30.18 in 2.2 mi Variable 2.3 mph - N/A   Mostly Cloudy
10:20 AM 41.0 °F - 37.4 °F 87% 30.18 in 2.5 mi Variable 1.2 mph - N/A   Mostly Cloudy
10:50 AM 42.8 °F - 37.4 °F 81% 30.18 in - Variable 2.3 mph - N/A   Scattered Clouds
11:00 AM 42 °F - 37 °F 76% 30.23 in - NNE 1.2 mph - -  
11:20 AM 44.6 °F - 37.4 °F 76% 30.18 in - Variable 1.2 mph - N/A   Scattered Clouds
11:50 AM 44.6 °F - 37.4 °F 76% 30.15 in 3.7 mi Variable 1.2 mph - N/A   Scattered Clouds
12:00 PM 43 °F - 37 °F 71% 30.20 in - WNW 1.2 mph - -  
12:20 PM 44.6 °F - 37.4 °F 76% 30.15 in 3.7 mi Variable 2.3 mph - N/A   Mostly Cloudy
12:50 PM 44.6 °F - 37.4 °F 76% 30.15 in 4.3 mi Variable 2.3 mph - N/A   Unknown
1:00 PM 44 °F - 36 °F 66% 30.18 in 4 mi WNW 1.2 mph - -   Mist
1:20 PM 44.6 °F - 37.4 °F 76% 30.12 in 4.3 mi Variable 1.2 mph - N/A   Unknown
1:50 PM 46.4 °F - 37.4 °F 71% 30.12 in 5.0 mi Variable 1.2 mph - N/A   Unknown
2:00 PM 46 °F - 36 °F 58% 30.16 in - NNE 2.3 mph - -  
2:20 PM 48.2 °F - 37.4 °F 66% 30.12 in 5.0 mi Variable 2.3 mph - N/A   Scattered Clouds
2:50 PM 48.2 °F - 37.4 °F 66% 30.12 in 5.6 mi Variable 1.2 mph - N/A   Scattered Clouds
3:00 PM 47 °F - 37 °F 58% 30.14 in - NE 2.3 mph - -  
3:20 PM 48.2 °F - 37.4 °F 66% 30.12 in 5.0 mi Variable 2.3 mph - N/A   Mostly Cloudy
3:50 PM 46.4 °F - 37.4 °F 71% 30.12 in 5.0 mi ENE 2.3 mph - N/A   Mostly Cloudy
4:20 PM 46.4 °F - 39.2 °F 76% 30.12 in 5.6 mi ENE 2.3 mph - N/A   Mostly Cloudy
4:50 PM 44.6 °F - 37.4 °F 76% 30.12 in 5.6 mi Variable 1.2 mph - N/A   Mostly Cloudy
5:00 PM 43 °F - 37 °F 71% 30.16 in - North 1.2 mph - -  
5:20 PM 42.8 °F - 37.4 °F 81% 30.12 in 5.0 mi Calm Calm - N/A   Mostly Cloudy
5:50 PM 42.8 °F - 37.4 °F 81% 30.12 in 5.0 mi Variable 1.2 mph - N/A   Mostly Cloudy
6:00 PM 42 °F - 37 °F 76% 30.17 in - NNE 1.2 mph - -  
6:20 PM 41.0 °F - 37.4 °F 87% 30.12 in 4.3 mi Calm Calm - N/A   Unknown
6:50 PM 41.0 °F - 37.4 °F 87% 30.12 in 4.3 mi Calm Calm - N/A   Unknown
7:00 PM 42 °F - 37 °F 76% 30.17 in 5 mi NNW 1.2 mph - -   Mist
7:20 PM 41.0 °F - 37.4 °F 87% 30.12 in 4.3 mi Calm Calm - N/A   Unknown
7:50 PM 41.0 °F - 37.4 °F 87% 30.12 in 5.6 mi Calm Calm - N/A   Unknown
8:00 PM 41 °F - 37 °F 82% 30.18 in - Calm Calm - -  
8:20 PM 41.0 °F - 37.4 °F 87% 30.15 in 5.0 mi Calm Calm - N/A   Unknown
8:50 PM 39.2 °F - 37.4 °F 93% 30.15 in 5.0 mi Variable 1.2 mph - N/A   Unknown
9:00 PM 40 °F - 37 °F 84% 30.20 in - North 1.2 mph - -  
9:20 PM 39.2 °F - 37.4 °F 93% 30.15 in 4.3 mi Calm Calm - N/A   Unknown
9:50 PM 39.2 °F - 35.6 °F 87% 30.15 in 4.3 mi Variable 1.2 mph - N/A   Unknown
10:20 PM 37.4 °F - 35.6 °F 93% 30.15 in 4.3 mi Variable 1.2 mph - N/A   Unknown
10:50 PM 37.4 °F - 35.6 °F 93% 30.15 in 4.3 mi NW 1.2 mph - N/A   Unknown
11:00 PM 38 °F - 36 °F 88% 30.22 in - West 1.2 mph - -  
11:20 PM 37.4 °F - 35.6 °F 93% 30.15 in 3.7 mi WSW 2.3 mph - N/A   Unknown
11:50 PM 37.4 °F - 35.6 °F 93% 30.15 in 3.7 mi Variable 1.2 mph - N/A   Unknown